H1 CPF 2 NER 2025 11 23 9 327 01 glonass141 H2 1908801 9141 44850 2025 11 23 0 0 0 2025 11 26 23 45 0 900 1 1 0 0 0 1 H9 10 0 61002 0.00000 0 24055804.751 4544824.638 -7182612.538 10 0 61002 900.00000 0 24777871.673 4560851.225 -4046818.955 10 0 61002 1800.00000 0 25118040.903 4438061.969 -832482.790 10 0 61002 2700.00000 0 25056628.177 4229842.722 2398009.291 10 0 61002 3600.00000 0 24587231.781 3992581.784 5582007.772 10 0 61002 4500.00000 0 23717038.795 3783049.596 8657811.496 10 0 61002 5400.00000 0 22466582.093 3655770.364 11565856.801 10 0 61002 6300.00000 0 20868959.115 3660496.505 14249861.978 10 0 61002 7200.00000 0 18968545.777 3839892.060 16657905.595 10 0 61002 8100.00000 0 16819259.470 4227522.194 18743418.807 10 0 61002 9000.00000 0 14482443.487 4846232.785 20466073.699 10 0 61002 9900.00000 0 12024460.382 5706987.849 21792551.712 10 0 61002 10800.00000 0 9514093.373 6808213.473 22697178.636 10 0 61002 11700.00000 0 7019862.395 8135676.098 23162414.995 10 0 61002 12600.00000 0 4607364.649 9662901.046 23179193.187 10 0 61002 13500.00000 0 2336748.314 11352115.119 22747095.305 10 0 61002 14400.00000 0 260422.620 13155675.617 21874368.199 10 0 61002 15300.00000 0 -1578902.094 15017928.107 20577774.956 10 0 61002 16200.00000 0 -3149764.000 16877417.541 18882284.734 10 0 61002 17100.00000 0 -4433025.413 18669362.419 16820605.604 10 0 61002 18000.00000 0 -5422429.898 20328290.366 14432567.870 10 0 61002 18900.00000 0 -6124617.625 21790726.205 11764368.167 10 0 61002 19800.00000 0 -6558598.067 22997820.684 8867687.377 10 0 61002 20700.00000 0 -6754701.727 23897809.703 5798698.191 10 0 61002 21600.00000 0 -6753054.626 24448200.233 2616980.585 10 0 61002 22500.00000 0 -6601639.536 24617589.938 -615634.183 10 0 61002 23400.00000 0 -6354025.902 24387042.369 -3836268.581 10 0 61002 24300.00000 0 -6066864.790 23750958.059 -6982228.858 10 0 61002 25200.00000 0 -5797255.712 22717402.991 -9992235.353 10 0 61002 26100.00000 0 -5600098.050 21307878.921 -12807627.879 10 0 61002 27000.00000 0 -5525540.766 19556543.852 -15373521.383 10 0 61002 27900.00000 0 -5616640.123 17508914.469 -17639888.049 10 0 61002 28800.00000 0 -5907326.344 15220104.567 -19562543.513 10 0 61002 29700.00000 0 -6420766.925 12752673.347 -21104016.998 10 0 61002 30600.00000 0 -7168197.271 10174174.027 -22234287.721 10 0 61002 31500.00000 0 -8148269.256 7554505.939 -22931372.830 10 0 61002 32400.00000 0 -9346946.056 4963181.388 -23181755.351 10 0 61002 33300.00000 0 -10737948.227 2466621.925 -22980644.012 10 0 61002 34200.00000 0 -12283732.476 125597.129 -22332060.266 10 0 61002 35100.00000 0 -13936961.857 -2007087.352 -21248751.417 10 0 61002 36000.00000 0 -15642405.364 -3888556.670 -19751932.136 10 0 61002 36900.00000 0 -17339186.676 -5487407.478 -17870860.130 10 0 61002 37800.00000 0 -18963287.141 -6784759.706 -15642254.933 10 0 61002 38700.00000 0 -20450197.491 -7774777.370 -13109571.827 10 0 61002 39600.00000 0 -21737606.550 -8464638.903 -10322145.754 10 0 61002 40500.00000 0 -22768013.899 -8873960.707 -7334222.570 10 0 61002 41400.00000 0 -23491156.787 -9033700.620 -4203897.121 10 0 61002 42300.00000 0 -23866149.643 -8984589.787 -991979.430 10 0 61002 43200.00000 0 -23863246.849 -8775161.033 2239188.495 10 0 61002 44100.00000 0 -23465155.460 -8459458.525 5426941.905 10 0 61002 45000.00000 0 -22667843.601 -8094526.558 8509504.989 10 0 61002 45900.00000 0 -21480811.479 -7737784.052 11427181.598 10 0 61002 46800.00000 0 -19926814.418 -7444395.740 14123502.397 10 0 61002 47700.00000 0 -18041050.026 -7264750.658 16546306.897 10 0 61002 48600.00000 0 -15869843.704 -7242153.606 18648740.420 10 0 61002 49500.00000 0 -13468887.140 -7410826.075 20390147.946 10 0 61002 50400.00000 0 -10901102.593 -7794300.006 21736848.788 10 0 61002 51300.00000 0 -8234220.755 -8404271.313 22662778.463 10 0 61002 52200.00000 0 -5538171.395 -9239961.149 23149986.464 10 0 61002 53100.00000 0 -2882393.436 -10288011.945 23188981.154 10 0 61002 54000.00000 0 -333174.210 -11522923.369 22778915.613 10 0 61002 54900.00000 0 2048873.613 -12908011.284 21927610.801 10 0 61002 55800.00000 0 4211094.357 -14396851.219 20651415.143 10 0 61002 56700.00000 0 6110737.588 -15935147.940 18974902.281 10 0 61002 57600.00000 0 7716492.291 -17462954.871 16930411.522 10 0 61002 58500.00000 0 9009543.653 -18917152.277 14557438.330 10 0 61002 59400.00000 0 9984108.583 -20234081.860 11901885.001 10 0 61002 60300.00000 0 10647427.410 -21352228.246 9015184.447 10 0 61002 61200.00000 0 11019211.768 -22214835.105 5953312.776 10 0 61002 62100.00000 0 11130571.395 -22772345.620 2775708.857 10 0 61002 63000.00000 0 11022464.674 -22984563.672 -455878.703 10 0 61002 63900.00000 0 10743738.124 -22822443.267 -3678594.688 10 0 61002 64800.00000 0 10348837.776 -22269428.946 -6829706.705 10 0 61002 65700.00000 0 9895289.809 -21322288.706 -9847836.104 10 0 61002 66600.00000 0 9441057.979 -19991402.318 -12674165.210 10 0 61002 67500.00000 0 9041890.989 -18300491.143 -15253596.059 10 0 61002 68400.00000 0 8748773.599 -16285799.392 -17535836.714 10 0 61002 69300.00000 0 8605590.975 -13994760.234 -19476392.727 10 0 61002 70200.00000 0 8647106.615 -11484202.272 -21037443.467 10 0 61002 71100.00000 0 8897340.748 -8818171.383 -22188585.502 10 0 61002 72000.00000 0 9368418.809 -6065459.386 -22907428.160 10 0 61002 72900.00000 0 10059939.375 -3296943.183 -23180029.576 10 0 61002 73800.00000 0 10958888.664 -582845.910 -23001164.938 10 0 61002 74700.00000 0 12040105.264 2009965.316 -22374422.063 10 0 61002 75600.00000 0 13267275.321 4420532.364 -21312123.035 10 0 61002 76500.00000 0 14594415.861 6596103.691 -19835074.044 10 0 61002 77400.00000 0 15967783.220 8494081.489 -17972148.994 10 0 61002 78300.00000 0 17328125.608 10083538.415 -15759715.717 10 0 61002 79200.00000 0 18613184.427 11346242.231 -13240916.654 10 0 61002 80100.00000 0 19760338.479 12277147.529 -10464818.753 10 0 61002 81000.00000 0 20709279.437 12884336.327 -7485449.812 10 0 61002 81900.00000 0 21404605.783 13188412.461 -4360740.664 10 0 61002 82800.00000 0 21798226.073 13221377.653 -1151394.419 10 0 61002 83700.00000 0 21851470.703 13025038.779 2080294.777 10 0 61002 84600.00000 0 21536823.820 12649015.356 5271650.200 10 0 61002 85500.00000 0 20839203.187 12148432.638 8360824.573 10 0 61003 0.00000 0 19756735.026 11581398.639 11287992.059 10 0 61003 900.00000 0 18300991.295 11006371.535 13996499.059 10 0 61003 1800.00000 0 16496681.411 10479529.094 16433948.326 10 0 61003 2700.00000 0 14380809.568 10052249.437 18553201.641 10 0 61003 3600.00000 0 12001333.946 9768809.099 20313278.856 10 0 61003 4500.00000 0 9415382.604 9664394.016 21680138.818 10 0 61003 5400.00000 0 6687099.311 9763506.147 22627328.093 10 0 61003 6300.00000 0 3885207.397 10078831.976 23136486.089 10 0 61003 7200.00000 0 1080390.999 10610620.104 23197697.687 10 0 61003 8100.00000 0 -1657399.600 11346594.187 22809687.050 10 0 61003 9000.00000 0 -4261608.790 12262405.619 21979848.883 10 0 61003 9900.00000 0 -6671594.105 13322608.172 20724116.086 10 0 61003 10800.00000 0 -8834899.435 14482115.325 19066665.443 10 0 61003 11700.00000 0 -10709189.776 15688080.995 17039465.714 10 0 61003 12600.00000 0 -12263767.801 16882126.560 14681675.353 10 0 61003 13500.00000 0 -13480609.371 18002822.273 12038899.847 10 0 61003 14400.00000 0 -14354874.726 18988320.021 9162321.444 10 0 61003 15300.00000 0 -14894873.572 19779027.288 6107716.845 10 0 61003 16200.00000 0 -15121485.032 20320209.744 2934380.885 10 0 61003 17100.00000 0 -15067056.364 20564412.125 -296023.423 10 0 61003 18000.00000 0 -14773826.467 20473594.022 -3520666.142 10 0 61003 18900.00000 0 -14291940.588 20020888.736 -6676779.154 10 0 61003 19800.00000 0 -13677140.412 19191908.950 -9702887.645 10 0 61003 20700.00000 0 -12988227.812 17985541.974 -12540019.144 10 0 61003 21600.00000 0 -12284410.598 16414198.991 -15132865.264 10 0 61003 22500.00000 0 -11622643.781 14503505.977 -17430872.172 10 0 61003 23400.00000 0 -11055080.283 12291447.892 -19389237.276 10 0 61003 24300.00000 0 -10626740.259 9827001.094 -20969791.710 10 0 61003 25200.00000 0 -10373498.818 7168310.763 -22141750.693 10 0 61003 26100.00000 0 -10320478.150 4380489.539 -22882316.700 10 0 61003 27000.00000 0 -10480912.590 1533129.533 -23177123.610 10 0 61003 27900.00000 0 -10855534.822 -1302368.116 -23020513.347 10 0 61003 28800.00000 0 -11432509.010 -4055534.421 -22415640.004 10 0 61003 29700.00000 0 -12187913.278 -6659530.039 -21374399.971 10 0 61003 30600.00000 0 -13086750.585 -9053686.797 -19917190.088 10 0 61003 31500.00000 0 -14084444.517 -11185787.773 -18072499.203 10 0 61003 32400.00000 0 -15128756.097 -13013991.754 -15876341.838 10 0 61003 33300.00000 0 -16162039.917 -14508323.113 -13371545.688 10 0 61003 34200.00000 0 -17123743.676 -15651666.568 -10606907.551 10 0 61003 35100.00000 0 -17953045.092 -16440227.291 -7636234.824 10 0 61003 36000.00000 0 -18591514.587 -16883439.391 -4517291.839 10 0 61003 36900.00000 0 -18985691.250 -17003328.965 -1310672.193 10 0 61003 37800.00000 0 -19089463.563 -16833360.779 1921380.529 10 0 61003 38700.00000 0 -18866154.811 -16416819.172 5116180.403 10 0 61003 39600.00000 0 -18290225.828 -15804792.996 8211811.532 10 0 61003 40500.00000 0 -17348523.953 -15053850.712 11148321.770 10 0 61003 41400.00000 0 -16041026.231 -14223504.195 13868875.040 10 0 61003 42300.00000 0 -14381046.043 -13373568.238 16320840.626 10 0 61003 43200.00000 0 -12394894.671 -12561526.471 18456799.310 10 0 61003 44100.00000 0 -10121011.673 -11840013.739 20235448.099 10 0 61003 45000.00000 0 -7608599.808 -11254519.701 21622387.300 10 0 61003 45900.00000 0 -4915820.261 -10841408.955 22590776.054 10 0 61003 46800.00000 0 -2107621.792 -10626339.713 23121844.789 10 0 61003 47700.00000 0 746707.828 -10623146.565 23205255.574 10 0 61003 48600.00000 0 3576168.506 -10833233.772 22839303.917 10 0 61003 49500.00000 0 6310745.838 -11245504.614 22030958.141 10 0 61003 50400.00000 0 8884070.518 -11836830.376 20795735.137 10 0 61003 51300.00000 0 11235930.619 -12573040.349 19157414.006 10 0 61003 52200.00000 0 13314533.843 -13410392.723 17147591.801 10 0 61003 53100.00000 0 15078426.587 -14297466.186 14805088.470 10 0 61003 54000.00000 0 16497990.408 -15177394.221 12175210.828 10 0 61003 54900.00000 0 17556453.460 -15990349.401 9308888.242 10 0 61003 55800.00000 0 18250374.237 -16676173.868 6261695.424 10 0 61003 56700.00000 0 18589576.796 -17177045.364 3092780.293 10 0 61003 57600.00000 0 18596539.522 -17440065.957 -136282.872 10 0 61003 58500.00000 0 18305262.556 -17419663.148 -3362692.682 10 0 61003 59400.00000 0 17759661.269 -17079700.390 -6523648.612 10 0 61003 60300.00000 0 17011553.515 -16395205.902 -9557582.943 10 0 61003 61200.00000 0 16118326.051 -15353644.563 -12405371.521 10 0 61003 62100.00000 0 15140379.385 -13955677.004 -15011498.439 10 0 61003 63000.00000 0 14138460.128 -12215371.765 -17325150.615 10 0 61003 63900.00000 0 13170994.763 -10159859.805 -19301219.653 10 0 61003 64800.00000 0 12291538.748 -7828444.512 -20901190.450 10 0 61003 65700.00000 0 11546449.864 -5271203.563 -22093898.482 10 0 61003 66600.00000 0 10972884.910 -2547140.743 -22856140.568 10 0 61003 67500.00000 0 10597204.900 278035.118 -23173127.093 10 0 61003 68400.00000 0 10433856.184 3134411.262 -23038767.055 10 0 61003 69300.00000 0 10484774.471 5950547.493 -22455780.738 10 0 61003 70200.00000 0 10739336.292 8656216.289 -21435638.378 10 0 61003 71100.00000 0 11174859.060 11185092.285 -19998326.634 10 0 61003 72000.00000 0 11757627.559 13477279.195 -18171948.132 10 0 61003 72900.00000 0 12444402.337 15481569.407 -15992162.600 10 0 61003 73800.00000 0 13184345.176 17157342.945 -13501481.169 10 0 61003 74700.00000 0 13921279.231 18476027.819 -10748428.353 10 0 61003 75600.00000 0 14596187.462 19422062.436 -7786588.690 10 0 61003 76500.00000 0 15149843.151 19993321.825 -4673557.281 10 0 61003 77400.00000 0 15525460.911 20200991.935 -1469815.241 10 0 61003 78300.00000 0 15671256.100 20068899.563 1762447.536 10 0 61003 79200.00000 0 15542804.671 19632328.103 4960539.122 10 0 61003 80100.00000 0 15105104.207 18936370.765 8062478.174 10 0 61003 81000.00000 0 14334249.710 18033891.917 11008189.037 10 0 61003 81900.00000 0 13218654.043 16983183.233 13740656.571 10 0 61003 82800.00000 0 11759762.124 15845413.586 16207018.971 10 0 61003 83700.00000 0 9972229.031 14681979.725 18359578.423 10 0 61003 84600.00000 0 7883554.398 13551868.326 20156711.205 10 0 61003 85500.00000 0 5533187.834 12509139.182 21563660.907 10 0 61004 0.00000 0 2971141.909 11600633.864 22553200.659 10 0 61004 900.00000 0 256167.616 10864004.131 23106153.208 10 0 61004 1800.00000 0 -2546430.142 10326142.710 23211758.416 10 0 61004 2700.00000 0 -5367252.956 10002079.601 22867883.393 10 0 61004 3600.00000 0 -8135441.927 9894390.928 22081069.850 10 0 61004 4500.00000 0 -10781377.506 9993144.557 20866417.919 10 0 61004 5400.00000 0 -13239335.875 10276385.352 19247307.750 10 0 61004 6300.00000 0 -15449993.161 10711140.593 17254962.933 10 0 61004 7200.00000 0 -17362674.472 11254904.539 14927862.713 10 0 61004 8100.00000 0 -18937254.772 11857541.024 12311012.700 10 0 61004 9000.00000 0 -20145632.404 12463525.210 9455086.585 10 0 61004 9900.00000 0 -20972713.343 13014430.926 6415454.147 10 0 61004 10800.00000 0 -21416864.305 13451559.134 3251113.370 10 0 61004 11700.00000 0 -21489814.884 13718596.381 23546.784 10 0 61004 12600.00000 0 -21216011.966 13764190.159 -3204475.765 10 0 61004 13500.00000 0 -20631452.965 13544330.999 -6370124.268 10 0 61004 14400.00000 0 -19782046.639 13024438.744 -9411740.938 10 0 61004 15300.00000 0 -18721570.665 12181062.705 -12270052.641 10 0 61004 16200.00000 0 -17509312.554 11003121.597 -14889338.466 10 0 61004 17100.00000 0 -16207494.215 9492628.650 -17218528.357 10 0 61004 18000.00000 0 -14878589.924 7664869.310 -19212210.079 10 0 61004 18900.00000 0 -13582651.939 5548022.328 -20831523.906 10 0 61004 19800.00000 0 -12374757.667 3182238.808 -22044926.809 10 0 61004 20700.00000 0 -11302686.868 618217.022 -22828810.790 10 0 61004 21600.00000 0 -10404927.388 -2084667.846 -23167963.198 10 0 61004 22500.00000 0 -9709093.552 -4860600.928 -23055860.174 10 0 61004 23400.00000 0 -9230823.597 -7639838.357 -22494787.907 10 0 61004 24300.00000 0 -8973201.868 -10351386.433 -21495789.823 10 0 61004 25200.00000 0 -8926729.048 -12925737.423 -20078441.426 10 0 61004 26100.00000 0 -9069840.333 -15297547.864 -18270457.838 10 0 61004 27000.00000 0 -9369948.188 -17408147.943 -16107142.439 10 0 61004 27900.00000 0 -9784964.121 -19207777.862 -13630688.030 10 0 61004 28800.00000 0 -10265233.722 -20657458.704 -10889344.907 10 0 61004 29700.00000 0 -10755801.920 -21730420.930 -7936472.704 10 0 61004 30600.00000 0 -11198911.602 -22413032.415 -4829495.145 10 0 61004 31500.00000 0 -11536629.213 -22705188.951 -1628778.655 10 0 61004 32400.00000 0 -11713485.837 -22620152.921 1603542.839 10 0 61004 33300.00000 0 -11679022.017 -22183848.868 4804773.767 10 0 61004 34200.00000 0 -11390128.891 -21433647.378 7912869.787 10 0 61004 35100.00000 0 -10813087.190 -20416689.911 10867634.271 10 0 61004 36000.00000 0 -9925218.528 -19187826.012 13611875.591 10 0 61004 36900.00000 0 -8716079.883 -17807250.166 16092503.434 10 0 61004 37800.00000 0 -7188151.297 -16337937.496 18261543.885 10 0 61004 38700.00000 0 -5356987.909 -14842985.408 20077054.830 10 0 61004 39600.00000 0 -3250829.531 -13382971.633 21503925.241 10 0 61004 40500.00000 0 -909683.229 -12013438.068 22514544.181 10 0 61004 41400.00000 0 1616084.177 -10782604.213 23089327.823 10 0 61004 42300.00000 0 4267586.793 -9729404.430 23217095.125 10 0 61004 43200.00000 0 6979619.035 -8881929.775 22895285.523 10 0 61004 44100.00000 0 9683124.601 -8256338.595 22130014.455 10 0 61004 45000.00000 0 12307834.722 -7856280.909 20935965.283 10 0 61004 45900.00000 0 14784968.260 -7672860.593 19336118.828 10 0 61004 46800.00000 0 17049883.243 -7685137.311 17361324.478 10 0 61004 47700.00000 0 19044570.874 -7861147.872 15049719.661 10 0 61004 48600.00000 0 20719888.947 -8159405.088 12446007.265 10 0 61004 49500.00000 0 22037441.762 -8530812.056 9600603.374 10 0 61004 50400.00000 0 22971027.658 -8920912.091 6568670.484 10 0 61004 51300.00000 0 23507592.911 -9272379.921 3409053.897 10 0 61004 52200.00000 0 23647650.989 -9527648.981 183141.307 10 0 61004 53100.00000 0 23405148.495 -9631563.258 -3046332.308 10 0 61004 54000.00000 0 22806782.447 -9533940.449 -6216510.912 10 0 61004 54900.00000 0 21890796.909 -9191936.413 -9265650.098 10 0 61004 55800.00000 0 20705309.253 -8572108.928 -12134331.082 10 0 61004 56700.00000 0 19306236.656 -7652091.248 -14766631.080 10 0 61004 57600.00000 0 17754910.621 -6421802.498 -17111225.912 10 0 61004 58500.00000 0 16115480.839 -4884141.610 -19122402.048 10 0 61004 59400.00000 0 14452218.694 -3055133.643 -20760957.345 10 0 61004 60300.00000 0 12826834.974 -963520.718 -21994972.116 10 0 61004 61200.00000 0 11295925.545 1350186.405 -22800435.024 10 0 61004 62100.00000 0 9908653.088 3835157.090 -23161711.457 10 0 61004 63000.00000 0 8704762.589 6432129.661 -23071845.386 10 0 61004 63900.00000 0 7713013.812 9075661.363 -22532689.167 10 0 61004 64800.00000 0 6950095.981 11696645.328 -21554859.288 10 0 61004 65700.00000 0 6420069.153 14224989.298 -20157519.572 10 0 61004 66600.00000 0 6114354.317 16592344.104 -18367996.730 10 0 61004 67500.00000 0 6012270.860 18734768.039 -16221236.507 10 0 61004 68400.00000 0 6082096.870 20595216.141 -13759111.728 10 0 61004 69300.00000 0 6282605.661 22125750.934 -11029596.452 10 0 61004 70200.00000 0 6565011.908 23289383.100 -8085823.050 10 0 61004 71100.00000 0 6875243.632 24061466.307 -4985041.189 10 0 61004 72000.00000 0 7156442.800 24430589.268 -1787499.653 10 0 61004 72900.00000 0 7351587.934 24398929.361 1444726.755 10 0 61004 73800.00000 0 7406127.381 23982054.762 4648942.088 10 0 61004 74700.00000 0 7270511.781 23208185.128 7763042.297 10 0 61004 75600.00000 0 6902518.932 22116943.374 10726713.004 10 0 61004 76500.00000 0 6269273.279 20757652.092 13482589.182 10 0 61004 77400.00000 0 5348875.321 19187246.829 15977354.898 10 0 61004 78300.00000 0 4131572.729 17467893.885 18162762.794 10 0 61004 79200.00000 0 2620424.078 15664412.111 19996554.762 10 0 61004 80100.00000 0 831427.184 13841605.784 21443267.243 10 0 61004 81000.00000 0 -1206893.977 12061618.861 22474906.933 10 0 61004 81900.00000 0 -3454427.606 10381419.633 23071484.995 10 0 61004 82800.00000 0 -5860900.105 8850519.209 23221400.351 10 0 61004 83700.00000 0 -8367732.309 7509017.484 22921665.258 10 0 61004 84600.00000 0 -10910250.946 6386056.807 22177968.867 10 0 61004 85500.00000 0 -13420165.615 5498746.924 21004577.198 10 0 61005 0.00000 0 -15828210.334 4851605.590 19424070.771 10 0 61005 900.00000 0 -18066843.006 4436537.800 17466922.804 10 0 61005 1800.00000 0 -20072888.789 4233355.639 15170926.849 10 0 61005 2700.00000 0 -21790022.479 4210816.353 12580480.456 10 0 61005 3600.00000 0 -23170983.516 4328136.711 9745739.161 10 0 61005 4500.00000 0 -24179432.115 4536920.241 6721655.010 10 0 61005 5400.00000 0 -24791367.932 4783416.714 3566917.338 10 0 61005 6300.00000 0 -24996050.696 5011018.648 342815.688 10 0 61005 7200.00000 0 -24796382.866 5162889.026 -2887953.111 10 0 61005 8100.00000 0 -24208736.926 5184608.249 -6062510.187 10 0 61005 9000.00000 0 -23262233.455 5026726.988 -9119027.593 10 0 61005 9900.00000 0 -21997499.545 4647115.095 -11997943.822 10 0 61005 10800.00000 0 -20464959.446 4013005.158 -14643136.925 10 0 61005 11700.00000 0 -18722729.414 3102642.019 -17003031.042 10 0 61005 12600.00000 0 -16834205.831 1906466.411 -19031613.439 10 0 61005 13500.00000 0 -14865448.761 427780.727 -20689341.228 10 0 61005 14400.00000 0 -12882471.801 -1317132.892 -21943919.262 10 0 61005 15300.00000 0 -10948552.972 -3299448.465 -22770933.560 10 0 61005 16200.00000 0 -9121680.212 -5478768.760 -23154327.748 10 0 61005 17100.00000 0 -7452239.027 -7804594.339 -23086713.349 10 0 61005 18000.00000 0 -5981039.252 -10218227.753 -22569508.184 10 0 61005 18900.00000 0 -4737763.140 -12655033.152 -21612900.729 10 0 61005 19800.00000 0 -3739898.845 -15046956.667 -20235641.735 10 0 61005 20700.00000 0 -2992202.603 -17325201.923 -18464667.856 10 0 61005 21600.00000 0 -2486710.331 -19422948.696 -16334565.371 10 0 61005 22500.00000 0 -2203296.096 -21278001.080 -13886885.155 10 0 61005 23400.00000 0 -2110751.737 -22835254.585 -11169322.985 10 0 61005 24300.00000 0 -2168339.998 -24048879.495 -8234781.878 10 0 61005 25200.00000 0 -2327753.691 -24884129.887 -5140335.357 10 0 61005 26100.00000 0 -2535396.467 -25318703.620 -1946112.481 10 0 61005 27000.00000 0 -2734887.531 -25343597.655 1285873.143 10 0 61005 27900.00000 0 -2869683.546 -24963424.327 4492927.285 10 0 61005 28800.00000 0 -2885706.432 -24196176.834 7612888.304 10 0 61005 29700.00000 0 -2733865.963 -23072455.190 10585326.231 10 0 61005 30600.00000 0 -2372370.840 -21634186.273 13352704.833 10 0 61005 31500.00000 0 -1768731.203 -19932892.413 15861484.749 10 0 61005 32400.00000 0 -901368.630 -18027581.360 18063147.323 10 0 61005 33300.00000 0 239233.729 -15982345.717 19915120.479 10 0 61005 34200.00000 0 1649889.131 -13863771.507 21381589.994 10 0 61005 35100.00000 0 3314600.538 -11738262.909 22434181.822 10 0 61005 36000.00000 0 5204994.509 -9669393.263 23052503.466 10 0 61005 36900.00000 0 7281278.784 -7715391.083 23224534.862 10 0 61005 37800.00000 0 9493685.348 -5926864.098 22946861.825 10 0 61005 38700.00000 0 11784340.889 -4344854.485 22224747.637 10 0 61005 39600.00000 0 14089488.967 -2999305.068 21072041.080 10 0 61005 40500.00000 0 16341973.649 -1907999.430 19510921.849 10 0 61005 41400.00000 0 18473883.246 -1076019.664 17571487.044 10 0 61005 42300.00000 0 20419245.697 -495744.337 15291185.237 10 0 61005 43200.00000 0 22116664.345 -147386.988 12714107.443 10 0 61005 44100.00000 0 23511784.695 -53.060 9890147.072 10 0 61005 45000.00000 0 24559488.888 -13271.412 6874043.756 10 0 61005 45900.00000 0 25225725.413 -138936.406 3724328.512 10 0 61005 46800.00000 0 25488896.211 -323578.920 502190.032 10 0 61005 47700.00000 0 25340741.506 -510870.196 -2729715.987 10 0 61005 48600.00000 0 24786683.616 -644252.075 -5908491.011 10 0 61005 49500.00000 0 23845613.809 -669581.244 -8972226.793 10 0 61005 50400.00000 0 22549129.909 -537674.046 -11861222.293 10 0 61005 51300.00000 0 20940255.886 -206642.283 -14519159.456 10 0 61005 52200.00000 0 19071696.827 356080.889 -16894213.570 10 0 61005 53100.00000 0 17003702.706 1172112.734 -18940075.280 10 0 61005 54000.00000 0 14801631.095 2250961.190 -20616863.258 10 0 61005 54900.00000 0 12533311.771 3589384.319 -21891908.921 10 0 61005 55800.00000 0 10266324.592 5171297.408 -22740397.378 10 0 61005 56700.00000 0 8065305.371 6968232.726 -23145851.918 10 0 61005 57600.00000 0 5989393.126 8940333.326 -23100452.698 10 0 61005 58500.00000 0 4089925.677 11037839.507 -22605183.729 10 0 61005 59400.00000 0 2408479.732 13203005.646 -21669805.796 10 0 61005 60300.00000 0 975336.666 15372366.919 -20312656.484 10 0 61005 61200.00000 0 -191563.068 17479260.677 -18560281.881 10 0 61005 62100.00000 0 -1087134.852 19456496.568 -16446907.862 10 0 61005 63000.00000 0 -1719114.633 21239063.429 -14013761.998 10 0 61005 63900.00000 0 -2107477.309 22766759.457 -11308260.036 10 0 61005 64800.00000 0 -2283335.596 23986635.688 -8383073.517 10 0 61005 65700.00000 0 -2287368.078 24855150.792 -5295097.351 10 0 61005 66600.00000 0 -2167844.797 25339947.587 -2104338.123 10 0 61005 67500.00000 0 -1978335.449 25421177.714 1127254.755 10 0 61005 68400.00000 0 -1775198.257 25092320.113 4336991.921 10 0 61005 69300.00000 0 -1614956.481 24360460.197 7462657.386 10 0 61005 70200.00000 0 -1551673.735 23246019.286 10443708.851 10 0 61005 71100.00000 0 -1634438.919 21781946.696 13222442.070 10 0 61005 72000.00000 0 -1905066.562 20012409.117 15745097.342 10 0 61005 72900.00000 0 -2396108.992 17991032.535 17962887.636 10 0 61005 73800.00000 0 -3129263.491 15778770.047 19832929.624 10 0 61005 74700.00000 0 -4114241.039 13441484.059 21319060.889 10 0 61005 75600.00000 0 -5348144.063 11047342.622 22392528.817 10 0 61005 76500.00000 0 -6815379.642 8664136.892 23032539.086 10 0 61005 77400.00000 0 -8488112.646 6356629.713 23226654.073 10 0 61005 78300.00000 0 -10327241.211 4184043.743 22971034.100 10 0 61005 79200.00000 0 -12283855.621 2197791.812 22270517.011 10 0 61005 80100.00000 0 -14301121.757 439542.359 21138534.202 10 0 61005 81000.00000 0 -16316512.768 -1060300.806 19596863.950 10 0 61005 81900.00000 0 -18264298.008 -2283641.925 17675225.593 10 0 61005 82800.00000 0 -20078187.203 -3225216.811 15410720.922 10 0 61005 83700.00000 0 -21694020.823 -3892574.587 12847131.967 10 0 61005 84600.00000 0 -23052395.027 -4305518.206 10034087.136 10 0 61005 85500.00000 0 -24101111.459 -4495026.730 7026110.439 99